• en France
  • Liste des pays
  • À 7 jours
  • Température de l'eau
  • Carte satellitaire
  • Carte météo
  • Widgets météo
  • user-avatar
    Se connecter

    Météo par heure à Karlanyurt

    Ce jour, 16 Octobre, Mardi

    Heure Température Précipitation Vent Pression Humidité
    00:00 +14°C° 0 mm 1 m/s 756 mmHg 62%
    01:00 +14°C° 0 mm 1 m/s 756 mmHg 62%
    02:00 +14°C° 0 mm 1 m/s 756 mmHg 63%
    03:00 +14°C° 0 mm 1 m/s 756 mmHg 63%
    04:00 +14°C° 0 mm 1 m/s 756 mmHg 63%
    05:00 +14°C° 0 mm 1 m/s 756 mmHg 63%
    06:00 +14°C° 0 mm 1 m/s 756 mmHg 64%
    07:00 +16°C° 0 mm 1 m/s 756 mmHg 59%
    08:00 +19°C° 0 mm 1 m/s 756 mmHg 55%
    09:00 +19°C° 0 mm 2 m/s 756 mmHg 50%
    10:00 +20°C° 0 mm 2 m/s 756 mmHg 49%
    11:00 +21°C° 0 mm 2 m/s 756 mmHg 47%
    12:00 +22°C° 0 mm 3 m/s 756 mmHg 46%
    13:00 +22°C° 0 mm 3 m/s 756 mmHg 47%
    14:00 +22°C° 0 mm 3 m/s 756 mmHg 49%
    15:00 +22°C° 0 mm 4 m/s 756 mmHg 51%
    16:00 +20°C° 0 mm 4 m/s 756 mmHg 59%
    17:00 +18°C° 0 mm 3 m/s 756 mmHg 67%
    18:00 +17°C° 0 mm 3 m/s 756 mmHg 76%
    19:00 +16°C° 0 mm 3 m/s 756 mmHg 78%
    20:00 +16°C° 0 mm 3 m/s 756 mmHg 80%
    21:00 +16°C° 0 mm 3 m/s 756 mmHg 82%
    22:00 +16°C° 0 mm 3 m/s 756 mmHg 83%
    23:00 +14°C° 0 mm 3 m/s 756 mmHg 84%

    Demain, 17 Octobre, Mercredi

    Heure Température Précipitation Vent Pression Humidité
    00:00 +14°C° 0 mm 3 m/s 755 mmHg 84%
    01:00 +14°C° 0 mm 3 m/s 755 mmHg 84%
    02:00 +14°C° 0 mm 3 m/s 755 mmHg 83%
    03:00 +14°C° 0 mm 3 m/s 755 mmHg 83%
    04:00 +14°C° 0 mm 3 m/s 755 mmHg 82%
    05:00 +14°C° 0 mm 3 m/s 755 mmHg 82%
    06:00 +13°C° 0 mm 3 m/s 755 mmHg 81%
    07:00 +15°C° 0 mm 4 m/s 755 mmHg 73%
    08:00 +18°C° 0 mm 4 m/s 755 mmHg 65%
    09:00 +20°C° 0 mm 4 m/s 755 mmHg 57%
    10:00 +21°C° 0 mm 4 m/s 755 mmHg 55%
    11:00 +22°C° 0 mm 5 m/s 754 mmHg 52%
    12:00 +23°C° 0 mm 5 m/s 754 mmHg 49%
    13:00 +23°C° 0 mm 5 m/s 754 mmHg 52%
    14:00 +23°C° 0 mm 5 m/s 753 mmHg 54%
    15:00 +22°C° 0 mm 5 m/s 753 mmHg 56%
    16:00 +21°C° 0 mm 5 m/s 753 mmHg 65%
    17:00 +19°C° 0 mm 4 m/s 753 mmHg 73%
    18:00 +17°C° 0 mm 4 m/s 753 mmHg 81%
    19:00 +17°C° 0 mm 3 m/s 753 mmHg 83%
    20:00 +16°C° 0 mm 3 m/s 753 mmHg 84%
    21:00 +16°C° 0 mm 3 m/s 753 mmHg 86%
    22:00 +16°C° 0 mm 3 m/s 753 mmHg 86%
    23:00 +15°C° 0 mm 2 m/s 753 mmHg 86%

    Après-demain, 18 Octobre, Jeudi

    Heure Température Précipitation Vent Pression Humidité
    00:00 +15°C° 0 mm 2 m/s 753 mmHg 86%
    01:00 +15°C° 0 mm 2 m/s 752 mmHg 86%
    02:00 +15°C° 0 mm 2 m/s 752 mmHg 85%
    03:00 +14°C° 0 mm 2 m/s 752 mmHg 85%
    04:00 +14°C° 0 mm 2 m/s 752 mmHg 83%
    05:00 +14°C° 0 mm 1 m/s 752 mmHg 82%
    06:00 +14°C° 0 mm 1 m/s 752 mmHg 81%
    07:00 +16°C° 0 mm 1 m/s 752 mmHg 75%
    08:00 +19°C° 0 mm 1 m/s 753 mmHg 68%
    09:00 +21°C° 0 mm 1 m/s 753 mmHg 61%
    10:00 +21°C° 0 mm 2 m/s 753 mmHg 57%
    11:00 +23°C° 0 mm 2 m/s 752 mmHg 53%
    12:00 +24°C° 0 mm 3 m/s 752 mmHg 48%
    13:00 +24°C° 0 mm 3 m/s 752 mmHg 50%
    14:00 +24°C° 0 mm 3 m/s 752 mmHg 51%
    15:00 +23°C° 0 mm 4 m/s 752 mmHg 53%
    16:00 +21°C° 0 mm 3 m/s 752 mmHg 63%
    17:00 +19°C° 0 mm 3 m/s 752 mmHg 73%
    18:00 +17°C° 0 mm 3 m/s 752 mmHg 84%
    19:00 +17°C° 0 mm 3 m/s 752 mmHg 86%
    20:00 +16°C° 0 mm 3 m/s 753 mmHg 87%
    21:00 +16°C° 0 mm 2 m/s 753 mmHg 89%
    22:00 +16°C° 0 mm 2 m/s 753 mmHg 89%
    23:00 +15°C° 0 mm 2 m/s 753 mmHg 88%

    19 Octobre, Vendredi

    Heure Température Précipitation Vent Pression Humidité
    00:00 +15°C° 0 mm 2 m/s 752 mmHg 87%
    01:00 +14°C° 0 mm 3 m/s 752 mmHg 85%
    02:00 +14°C° 0 mm 3 m/s 752 mmHg 84%
    03:00 +14°C° 0 mm 3 m/s 752 mmHg 82%
    04:00 +14°C° 0 mm 3 m/s 752 mmHg 81%
    05:00 +14°C° 0 mm 3 m/s 752 mmHg 80%
    06:00 +14°C° 0 mm 3 m/s 752 mmHg 78%
    07:00 +17°C° 0 mm 3 m/s 752 mmHg 71%
    08:00 +18°C° 0 mm 3 m/s 752 mmHg 64%
    09:00 +20°C° 0 mm 4 m/s 752 mmHg 57%
    10:00 +21°C° 0 mm 4 m/s 752 mmHg 54%
    11:00 +22°C° 0 mm 4 m/s 752 mmHg 50%
    12:00 +25°C° 0 mm 5 m/s 752 mmHg 47%
    13:00 +23°C° 0 mm 5 m/s 752 mmHg 49%
    14:00 +23°C° 0 mm 5 m/s 751 mmHg 52%
    15:00 +23°C° 0 mm 5 m/s 751 mmHg 55%
    16:00 +21°C° 0 mm 5 m/s 751 mmHg 63%
    17:00 +19°C° 0 mm 5 m/s 751 mmHg 72%
    18:00 +18°C° 0 mm 4 m/s 751 mmHg 80%
    19:00 +17°C° 0 mm 4 m/s 751 mmHg 80%
    20:00 +17°C° 0 mm 4 m/s 751 mmHg 80%
    21:00 +17°C° 0 mm 4 m/s 751 mmHg 80%
    22:00 +17°C° 0 mm 4 m/s 751 mmHg 78%
    23:00 +15°C° 0 mm 4 m/s 751 mmHg 77%

    20 Octobre, Samedi

    Heure Température Précipitation Vent Pression Humidité
    00:00 +15°C° 0 mm 4 m/s 750 mmHg 76%
    01:00 +15°C° 0 mm 4 m/s 750 mmHg 74%
    02:00 +16°C° 0 mm 3 m/s 750 mmHg 73%
    03:00 +16°C° 0 mm 3 m/s 750 mmHg 72%
    04:00 +16°C° 0 mm 3 m/s 749 mmHg 70%
    05:00 +16°C° 0 mm 3 m/s 749 mmHg 69%
    06:00 +14°C° 0 mm 3 m/s 749 mmHg 67%
    07:00 +17°C° 0 mm 3 m/s 749 mmHg 61%
    08:00 +19°C° 0 mm 2 m/s 749 mmHg 54%
    09:00 +21°C° 0 mm 2 m/s 749 mmHg 47%
    10:00 +24°C° 0 mm 3 m/s 749 mmHg 44%
    11:00 +25°C° 0 mm 3 m/s 748 mmHg 42%
    12:00 +26°C° 0 mm 3 m/s 748 mmHg 39%
    13:00 +26°C° 0 mm 3 m/s 748 mmHg 40%
    14:00 +26°C° 0 mm 3 m/s 748 mmHg 42%
    15:00 +25°C° 0 mm 3 m/s 747 mmHg 44%
    16:00 +24°C° 0 mm 3 m/s 748 mmHg 53%
    17:00 +21°C° 0 mm 3 m/s 748 mmHg 61%
    18:00 +19°C° 0 mm 2 m/s 748 mmHg 69%
    19:00 +19°C° 0 mm 2 m/s 748 mmHg 70%
    20:00 +18°C° 0 mm 2 m/s 748 mmHg 70%
    21:00 +18°C° 0 mm 2 m/s 748 mmHg 70%
    22:00 +19°C° 0 mm 1 m/s 747 mmHg 70%
    23:00 +18°C° 0 mm 1 m/s 747 mmHg 70%

    21 Octobre, Dimanche

    Heure Température Précipitation Vent Pression Humidité
    00:00 +18°C° 0 mm 1 m/s 747 mmHg 70%
    01:00 +18°C° 0 mm 1 m/s 747 mmHg 70%
    02:00 +16°C° 0 mm 1 m/s 747 mmHg 70%
    03:00 +16°C° 0 mm 1 m/s 747 mmHg 70%
    04:00 +16°C° 0 mm 1 m/s 747 mmHg 70%
    05:00 +16°C° 0 mm 1 m/s 747 mmHg 70%
    06:00 +16°C° 0 mm 1 m/s 747 mmHg 70%
    07:00 +18°C° 0 mm 1 m/s 747 mmHg 65%
    08:00 +20°C° 0 mm 1 m/s 747 mmHg 60%
    09:00 +21°C° 0 mm 1 m/s 747 mmHg 55%
    10:00 +23°C° 0 mm 1 m/s 747 mmHg 52%
    11:00 +24°C° 0 mm 2 m/s 746 mmHg 48%
    12:00 +25°C° 0 mm 2 m/s 746 mmHg 45%
    13:00 +25°C° 0 mm 2 m/s 746 mmHg 45%
    14:00 +25°C° 0 mm 2 m/s 746 mmHg 45%
    15:00 +25°C° 0 mm 2 m/s 745 mmHg 45%
    16:00 +24°C° 0.1 mm 1 m/s 746 mmHg 52%
    17:00 +22°C° 0.1 mm 1 m/s 746 mmHg 60%
    18:00 +20°C° 0.1 mm 1 m/s 746 mmHg 67%
    19:00 +20°C° 0.1 mm 1 m/s 746 mmHg 71%
    20:00 +19°C° 0.1 mm 1 m/s 746 mmHg 74%
    21:00 +19°C° 0.1 mm 1 m/s 747 mmHg 77%
    22:00 +19°C° 0.1 mm 1 m/s 747 mmHg 78%
    23:00 +19°C° 0.1 mm 1 m/s 747 mmHg 78%
    Voir plus